Index of /20260426/WXO-DD/model_rdps/10km/06/032
Name Last modified Size Description
Parent Directory -
20260426T06Z_MSC_RDPS_AbsoluteVorticity_IsbL-0250_RLatLon0.09_PT032H.grib2 2026-04-26 08:49 598K
20260426T06Z_MSC_RDPS_AbsoluteVorticity_IsbL-0500_RLatLon0.09_PT032H.grib2 2026-04-26 08:49 557K
20260426T06Z_MSC_RDPS_AbsoluteVorticity_IsbL-0700_RLatLon0.09_PT032H.grib2 2026-04-26 08:49 590K
20260426T06Z_MSC_RDPS_AbsoluteVorticity_IsbL-0850_RLatLon0.09_PT032H.grib2 2026-04-26 08:49 783K
20260426T06Z_MSC_RDPS_AirTemp_AGL-120m_RLatLon0.09_PT032H.grib2 2026-04-26 08:49 388K
20260426T06Z_MSC_RDPS_AirTemp_AGL-2m_RLatLon0.09_PT032H.grib2 2026-04-26 08:49 648K
20260426T06Z_MSC_RDPS_AirTemp_AGL-40m_RLatLon0.09_PT032H.grib2 2026-04-26 08:49 417K
20260426T06Z_MSC_RDPS_AirTemp_AGL-80m_RLatLon0.09_PT032H.grib2 2026-04-26 08:49 410K
20260426T06Z_MSC_RDPS_AirTemp_IsbL-0001_RLatLon0.09_PT032H.grib2 2026-04-26 08:49 271K
20260426T06Z_MSC_RDPS_AirTemp_IsbL-0005_RLatLon0.09_PT032H.grib2 2026-04-26 08:49 332K
20260426T06Z_MSC_RDPS_AirTemp_IsbL-0010_RLatLon0.09_PT032H.grib2 2026-04-26 08:49 304K
20260426T06Z_MSC_RDPS_AirTemp_IsbL-0020_RLatLon0.09_PT032H.grib2 2026-04-26 08:49 321K
20260426T06Z_MSC_RDPS_AirTemp_IsbL-0030_RLatLon0.09_PT032H.grib2 2026-04-26 08:49 338K
20260426T06Z_MSC_RDPS_AirTemp_IsbL-0050_RLatLon0.09_PT032H.grib2 2026-04-26 08:49 317K
20260426T06Z_MSC_RDPS_AirTemp_IsbL-0100_RLatLon0.09_PT032H.grib2 2026-04-26 08:49 417K
20260426T06Z_MSC_RDPS_AirTemp_IsbL-0150_RLatLon0.09_PT032H.grib2 2026-04-26 08:49 411K
20260426T06Z_MSC_RDPS_AirTemp_IsbL-0175_RLatLon0.09_PT032H.grib2 2026-04-26 08:49 401K
20260426T06Z_MSC_RDPS_AirTemp_IsbL-0200_RLatLon0.09_PT032H.grib2 2026-04-26 08:49 410K
20260426T06Z_MSC_RDPS_AirTemp_IsbL-0225_RLatLon0.09_PT032H.grib2 2026-04-26 08:49 413K
20260426T06Z_MSC_RDPS_AirTemp_IsbL-0250_RLatLon0.09_PT032H.grib2 2026-04-26 08:49 418K
20260426T06Z_MSC_RDPS_AirTemp_IsbL-0275_RLatLon0.09_PT032H.grib2 2026-04-26 08:49 398K
20260426T06Z_MSC_RDPS_AirTemp_IsbL-0300_RLatLon0.09_PT032H.grib2 2026-04-26 08:49 404K
20260426T06Z_MSC_RDPS_AirTemp_IsbL-0350_RLatLon0.09_PT032H.grib2 2026-04-26 08:49 415K
20260426T06Z_MSC_RDPS_AirTemp_IsbL-0400_RLatLon0.09_PT032H.grib2 2026-04-26 08:49 416K
20260426T06Z_MSC_RDPS_AirTemp_IsbL-0450_RLatLon0.09_PT032H.grib2 2026-04-26 08:49 425K
20260426T06Z_MSC_RDPS_AirTemp_IsbL-0500_RLatLon0.09_PT032H.grib2 2026-04-26 08:49 403K
20260426T06Z_MSC_RDPS_AirTemp_IsbL-0550_RLatLon0.09_PT032H.grib2 2026-04-26 08:49 421K
20260426T06Z_MSC_RDPS_AirTemp_IsbL-0600_RLatLon0.09_PT032H.grib2 2026-04-26 08:49 437K
20260426T06Z_MSC_RDPS_AirTemp_IsbL-0650_RLatLon0.09_PT032H.grib2 2026-04-26 08:49 452K
20260426T06Z_MSC_RDPS_AirTemp_IsbL-0700_RLatLon0.09_PT032H.grib2 2026-04-26 08:49 478K
20260426T06Z_MSC_RDPS_AirTemp_IsbL-0750_RLatLon0.09_PT032H.grib2 2026-04-26 08:49 408K
20260426T06Z_MSC_RDPS_AirTemp_IsbL-0800_RLatLon0.09_PT032H.grib2 2026-04-26 08:49 459K
20260426T06Z_MSC_RDPS_AirTemp_IsbL-0850_RLatLon0.09_PT032H.grib2 2026-04-26 08:49 507K
20260426T06Z_MSC_RDPS_AirTemp_IsbL-0875_RLatLon0.09_PT032H.grib2 2026-04-26 08:49 521K
20260426T06Z_MSC_RDPS_AirTemp_IsbL-0900_RLatLon0.09_PT032H.grib2 2026-04-26 08:49 527K
20260426T06Z_MSC_RDPS_AirTemp_IsbL-0925_RLatLon0.09_PT032H.grib2 2026-04-26 08:49 528K
20260426T06Z_MSC_RDPS_AirTemp_IsbL-0950_RLatLon0.09_PT032H.grib2 2026-04-26 08:49 532K
20260426T06Z_MSC_RDPS_AirTemp_IsbL-0970_RLatLon0.09_PT032H.grib2 2026-04-26 08:49 532K
20260426T06Z_MSC_RDPS_AirTemp_IsbL-0985_RLatLon0.09_PT032H.grib2 2026-04-26 08:49 527K
20260426T06Z_MSC_RDPS_AirTemp_IsbL-1000_RLatLon0.09_PT032H.grib2 2026-04-26 08:49 512K
20260426T06Z_MSC_RDPS_AirTemp_IsbL-1015_RLatLon0.09_PT032H.grib2 2026-04-26 08:49 503K
20260426T06Z_MSC_RDPS_Albedo_Sfc_RLatLon0.09_PT032H.grib2 2026-04-26 08:49 164K
20260426T06Z_MSC_RDPS_CAPE_Sfc_RLatLon0.09_PT032H.grib2 2026-04-26 08:49 1.7M
20260426T06Z_MSC_RDPS_CIN_Sfc_RLatLon0.09_PT032H.grib2 2026-04-26 08:49 1.1M
20260426T06Z_MSC_RDPS_CloudWater_EAtm_RLatLon0.09_PT032H.grib2 2026-04-26 08:49 217K
20260426T06Z_MSC_RDPS_ConvectivePrecip-Accum_Sfc_RLatLon0.09_PT032H.grib2 2026-04-26 08:49 944K
20260426T06Z_MSC_RDPS_DewPointDepression_AGL-2m_RLatLon0.09_PT032H.grib2 2026-04-26 08:49 413K
20260426T06Z_MSC_RDPS_DewPointDepression_IsbL-0001_RLatLon0.09_PT032H.grib2 2026-04-26 08:49 193
20260426T06Z_MSC_RDPS_DewPointDepression_IsbL-0005_RLatLon0.09_PT032H.grib2 2026-04-26 08:49 193
20260426T06Z_MSC_RDPS_DewPointDepression_IsbL-0010_RLatLon0.09_PT032H.grib2 2026-04-26 08:49 193
20260426T06Z_MSC_RDPS_DewPointDepression_IsbL-0020_RLatLon0.09_PT032H.grib2 2026-04-26 08:49 193
20260426T06Z_MSC_RDPS_DewPointDepression_IsbL-0030_RLatLon0.09_PT032H.grib2 2026-04-26 08:49 193
20260426T06Z_MSC_RDPS_DewPointDepression_IsbL-0050_RLatLon0.09_PT032H.grib2 2026-04-26 08:49 89K
20260426T06Z_MSC_RDPS_DewPointDepression_IsbL-0100_RLatLon0.09_PT032H.grib2 2026-04-26 08:49 126K
20260426T06Z_MSC_RDPS_DewPointDepression_IsbL-0150_RLatLon0.09_PT032H.grib2 2026-04-26 08:49 146K
20260426T06Z_MSC_RDPS_DewPointDepression_IsbL-0175_RLatLon0.09_PT032H.grib2 2026-04-26 08:49 176K
20260426T06Z_MSC_RDPS_DewPointDepression_IsbL-0200_RLatLon0.09_PT032H.grib2 2026-04-26 08:49 217K
20260426T06Z_MSC_RDPS_DewPointDepression_IsbL-0225_RLatLon0.09_PT032H.grib2 2026-04-26 08:49 257K
20260426T06Z_MSC_RDPS_DewPointDepression_IsbL-0250_RLatLon0.09_PT032H.grib2 2026-04-26 08:49 292K
20260426T06Z_MSC_RDPS_DewPointDepression_IsbL-0275_RLatLon0.09_PT032H.grib2 2026-04-26 08:49 302K
20260426T06Z_MSC_RDPS_DewPointDepression_IsbL-0300_RLatLon0.09_PT032H.grib2 2026-04-26 08:49 317K
20260426T06Z_MSC_RDPS_DewPointDepression_IsbL-0350_RLatLon0.09_PT032H.grib2 2026-04-26 08:49 322K
20260426T06Z_MSC_RDPS_DewPointDepression_IsbL-0400_RLatLon0.09_PT032H.grib2 2026-04-26 08:49 339K
20260426T06Z_MSC_RDPS_DewPointDepression_IsbL-0450_RLatLon0.09_PT032H.grib2 2026-04-26 08:49 353K
20260426T06Z_MSC_RDPS_DewPointDepression_IsbL-0500_RLatLon0.09_PT032H.grib2 2026-04-26 08:49 357K
20260426T06Z_MSC_RDPS_DewPointDepression_IsbL-0550_RLatLon0.09_PT032H.grib2 2026-04-26 08:49 365K
20260426T06Z_MSC_RDPS_DewPointDepression_IsbL-0600_RLatLon0.09_PT032H.grib2 2026-04-26 08:49 375K
20260426T06Z_MSC_RDPS_DewPointDepression_IsbL-0650_RLatLon0.09_PT032H.grib2 2026-04-26 08:49 381K
20260426T06Z_MSC_RDPS_DewPointDepression_IsbL-0700_RLatLon0.09_PT032H.grib2 2026-04-26 08:49 394K
20260426T06Z_MSC_RDPS_DewPointDepression_IsbL-0750_RLatLon0.09_PT032H.grib2 2026-04-26 08:49 420K
20260426T06Z_MSC_RDPS_DewPointDepression_IsbL-0800_RLatLon0.09_PT032H.grib2 2026-04-26 08:49 456K
20260426T06Z_MSC_RDPS_DewPointDepression_IsbL-0850_RLatLon0.09_PT032H.grib2 2026-04-26 08:49 478K
20260426T06Z_MSC_RDPS_DewPointDepression_IsbL-0875_RLatLon0.09_PT032H.grib2 2026-04-26 08:49 476K
20260426T06Z_MSC_RDPS_DewPointDepression_IsbL-0900_RLatLon0.09_PT032H.grib2 2026-04-26 08:49 465K
20260426T06Z_MSC_RDPS_DewPointDepression_IsbL-0925_RLatLon0.09_PT032H.grib2 2026-04-26 08:49 456K
20260426T06Z_MSC_RDPS_DewPointDepression_IsbL-0950_RLatLon0.09_PT032H.grib2 2026-04-26 08:49 451K
20260426T06Z_MSC_RDPS_DewPointDepression_IsbL-0970_RLatLon0.09_PT032H.grib2 2026-04-26 08:49 446K
20260426T06Z_MSC_RDPS_DewPointDepression_IsbL-0985_RLatLon0.09_PT032H.grib2 2026-04-26 08:49 443K
20260426T06Z_MSC_RDPS_DewPointDepression_IsbL-1000_RLatLon0.09_PT032H.grib2 2026-04-26 08:49 439K
20260426T06Z_MSC_RDPS_DewPointDepression_IsbL-1015_RLatLon0.09_PT032H.grib2 2026-04-26 08:49 432K
20260426T06Z_MSC_RDPS_DewPoint_AGL-2m_RLatLon0.09_PT032H.grib2 2026-04-26 08:49 407K
20260426T06Z_MSC_RDPS_DownwardLongwaveRadiationFlux-Accum_Sfc_RLatLon0.09_PT032H.grib2 2026-04-26 08:49 493K
20260426T06Z_MSC_RDPS_DownwardShortwaveRadiationFlux-Accum_NTAtm_RLatLon0.09_PT032H.grib2 2026-04-26 08:49 127K
20260426T06Z_MSC_RDPS_DownwardShortwaveRadiationFlux-Accum_Sfc_RLatLon0.09_PT032H.grib2 2026-04-26 08:49 538K
20260426T06Z_MSC_RDPS_FreezingRain-Accum1h_Sfc_RLatLon0.09_PT032H.grib2 2026-04-26 08:49 48K
20260426T06Z_MSC_RDPS_FreezingRain-Accum_Sfc_RLatLon0.09_PT032H.grib2 2026-04-26 08:49 145K
20260426T06Z_MSC_RDPS_GeopotentialHeight_IsbL-0001_RLatLon0.09_PT032H.grib2 2026-04-26 08:49 275K
20260426T06Z_MSC_RDPS_GeopotentialHeight_IsbL-0005_RLatLon0.09_PT032H.grib2 2026-04-26 08:49 339K
20260426T06Z_MSC_RDPS_GeopotentialHeight_IsbL-0010_RLatLon0.09_PT032H.grib2 2026-04-26 08:49 339K
20260426T06Z_MSC_RDPS_GeopotentialHeight_IsbL-0020_RLatLon0.09_PT032H.grib2 2026-04-26 08:49 305K
20260426T06Z_MSC_RDPS_GeopotentialHeight_IsbL-0030_RLatLon0.09_PT032H.grib2 2026-04-26 08:49 307K
20260426T06Z_MSC_RDPS_GeopotentialHeight_IsbL-0050_RLatLon0.09_PT032H.grib2 2026-04-26 08:49 308K
20260426T06Z_MSC_RDPS_GeopotentialHeight_IsbL-0100_RLatLon0.09_PT032H.grib2 2026-04-26 08:49 286K
20260426T06Z_MSC_RDPS_GeopotentialHeight_IsbL-0150_RLatLon0.09_PT032H.grib2 2026-04-26 08:49 225K
20260426T06Z_MSC_RDPS_GeopotentialHeight_IsbL-0175_RLatLon0.09_PT032H.grib2 2026-04-26 08:49 227K
20260426T06Z_MSC_RDPS_GeopotentialHeight_IsbL-0200_RLatLon0.09_PT032H.grib2 2026-04-26 08:49 230K
20260426T06Z_MSC_RDPS_GeopotentialHeight_IsbL-0225_RLatLon0.09_PT032H.grib2 2026-04-26 08:49 232K
20260426T06Z_MSC_RDPS_GeopotentialHeight_IsbL-0250_RLatLon0.09_PT032H.grib2 2026-04-26 08:49 265K
20260426T06Z_MSC_RDPS_GeopotentialHeight_IsbL-0275_RLatLon0.09_PT032H.grib2 2026-04-26 08:49 233K
20260426T06Z_MSC_RDPS_GeopotentialHeight_IsbL-0300_RLatLon0.09_PT032H.grib2 2026-04-26 08:49 233K
20260426T06Z_MSC_RDPS_GeopotentialHeight_IsbL-0350_RLatLon0.09_PT032H.grib2 2026-04-26 08:49 230K
20260426T06Z_MSC_RDPS_GeopotentialHeight_IsbL-0400_RLatLon0.09_PT032H.grib2 2026-04-26 08:49 227K
20260426T06Z_MSC_RDPS_GeopotentialHeight_IsbL-0450_RLatLon0.09_PT032H.grib2 2026-04-26 08:49 295K
20260426T06Z_MSC_RDPS_GeopotentialHeight_IsbL-0500_RLatLon0.09_PT032H.grib2 2026-04-26 08:49 290K
20260426T06Z_MSC_RDPS_GeopotentialHeight_IsbL-0550_RLatLon0.09_PT032H.grib2 2026-04-26 08:49 286K
20260426T06Z_MSC_RDPS_GeopotentialHeight_IsbL-0600_RLatLon0.09_PT032H.grib2 2026-04-26 08:49 281K
20260426T06Z_MSC_RDPS_GeopotentialHeight_IsbL-0650_RLatLon0.09_PT032H.grib2 2026-04-26 08:49 280K
20260426T06Z_MSC_RDPS_GeopotentialHeight_IsbL-0700_RLatLon0.09_PT032H.grib2 2026-04-26 08:49 279K
20260426T06Z_MSC_RDPS_GeopotentialHeight_IsbL-0750_RLatLon0.09_PT032H.grib2 2026-04-26 08:49 252K
20260426T06Z_MSC_RDPS_GeopotentialHeight_IsbL-0800_RLatLon0.09_PT032H.grib2 2026-04-26 08:49 259K
20260426T06Z_MSC_RDPS_GeopotentialHeight_IsbL-0850_RLatLon0.09_PT032H.grib2 2026-04-26 08:49 267K
20260426T06Z_MSC_RDPS_GeopotentialHeight_IsbL-0875_RLatLon0.09_PT032H.grib2 2026-04-26 08:49 270K
20260426T06Z_MSC_RDPS_GeopotentialHeight_IsbL-0900_RLatLon0.09_PT032H.grib2 2026-04-26 08:49 274K
20260426T06Z_MSC_RDPS_GeopotentialHeight_IsbL-0925_RLatLon0.09_PT032H.grib2 2026-04-26 08:49 278K
20260426T06Z_MSC_RDPS_GeopotentialHeight_IsbL-0950_RLatLon0.09_PT032H.grib2 2026-04-26 08:49 280K
20260426T06Z_MSC_RDPS_GeopotentialHeight_IsbL-0970_RLatLon0.09_PT032H.grib2 2026-04-26 08:49 285K
20260426T06Z_MSC_RDPS_GeopotentialHeight_IsbL-0985_RLatLon0.09_PT032H.grib2 2026-04-26 08:49 293K
20260426T06Z_MSC_RDPS_GeopotentialHeight_IsbL-1000_RLatLon0.09_PT032H.grib2 2026-04-26 08:49 303K
20260426T06Z_MSC_RDPS_GeopotentialHeight_IsbL-1015_RLatLon0.09_PT032H.grib2 2026-04-26 08:49 316K
20260426T06Z_MSC_RDPS_Humidex_Sfc_RLatLon0.09_PT032H.grib2 2026-04-26 08:49 2.4M
20260426T06Z_MSC_RDPS_IcePellets-Accum1h_Sfc_RLatLon0.09_PT032H.grib2 2026-04-26 08:49 7.8K
20260426T06Z_MSC_RDPS_IcePellets-Accum_Sfc_RLatLon0.09_PT032H.grib2 2026-04-26 08:49 28K
20260426T06Z_MSC_RDPS_KIndex_Sfc_RLatLon0.09_PT032H.grib2 2026-04-26 08:49 2.4M
20260426T06Z_MSC_RDPS_LatentHeatNetFlux_Sfc_RLatLon0.09_PT032H.grib2 2026-04-26 08:49 365K
20260426T06Z_MSC_RDPS_LiftedIndex-MU-VT_IsbL-0500_RLatLon0.09_PT032H.grib2 2026-04-26 08:49 2.4M
20260426T06Z_MSC_RDPS_NetLongwaveRadiationFlux-Accum_Sfc_RLatLon0.09_PT032H.grib2 2026-04-26 08:49 633K
20260426T06Z_MSC_RDPS_NetShortwaveRadiationFlux-Accum_Sfc_RLatLon0.09_PT032H.grib2 2026-04-26 08:49 676K
20260426T06Z_MSC_RDPS_PlanetaryBoundaryLayerHeight_Sfc_RLatLon0.09_PT032H.grib2 2026-04-26 08:49 1.2M
20260426T06Z_MSC_RDPS_Precip-Accum1h_Sfc_RLatLon0.09_PT032H.grib2 2026-04-26 08:49 1.3M
20260426T06Z_MSC_RDPS_Precip-Accum_Sfc_RLatLon0.09_PT032H.grib2 2026-04-26 08:49 2.1M
20260426T06Z_MSC_RDPS_PrecipRate_Sfc_RLatLon0.09_PT032H.grib2 2026-04-26 08:49 175K
20260426T06Z_MSC_RDPS_PrecipType-Instant_Sfc_RLatLon0.09_PT032H.grib2 2026-04-26 08:49 589K
20260426T06Z_MSC_RDPS_Pressure-Trend3h_Sfc_RLatLon0.09_PT032H.grib2 2026-04-26 08:49 1.2M
20260426T06Z_MSC_RDPS_Pressure_MSL_RLatLon0.09_PT032H.grib2 2026-04-26 08:49 328K
20260426T06Z_MSC_RDPS_Pressure_PVU-1.5_RLatLon0.09_PT032H.grib2 2026-04-26 08:49 2.5M
20260426T06Z_MSC_RDPS_Pressure_PVU-1_RLatLon0.09_PT032H.grib2 2026-04-26 08:49 2.4M
20260426T06Z_MSC_RDPS_Pressure_PVU-2_RLatLon0.09_PT032H.grib2 2026-04-26 08:49 2.4M
20260426T06Z_MSC_RDPS_Pressure_Sfc_RLatLon0.09_PT032H.grib2 2026-04-26 08:49 501K
20260426T06Z_MSC_RDPS_RadiativeTemp_Sfc_RLatLon0.09_PT032H.grib2 2026-04-26 08:49 314K
20260426T06Z_MSC_RDPS_Rain-Accum1h_Sfc_RLatLon0.09_PT032H.grib2 2026-04-26 08:49 605K
20260426T06Z_MSC_RDPS_Rain-Accum_Sfc_RLatLon0.09_PT032H.grib2 2026-04-26 08:49 1.6M
20260426T06Z_MSC_RDPS_RelativeHumidity_AGL-2m_RLatLon0.09_PT032H.grib2 2026-04-26 08:49 1.0M
20260426T06Z_MSC_RDPS_RelativeHumidity_IsbL-0010_RLatLon0.09_PT032H.grib2 2026-04-26 08:49 634K
20260426T06Z_MSC_RDPS_RelativeHumidity_IsbL-0020_RLatLon0.09_PT032H.grib2 2026-04-26 08:49 657K
20260426T06Z_MSC_RDPS_RelativeHumidity_IsbL-0030_RLatLon0.09_PT032H.grib2 2026-04-26 08:49 541K
20260426T06Z_MSC_RDPS_RelativeHumidity_IsbL-0050_RLatLon0.09_PT032H.grib2 2026-04-26 08:49 376K
20260426T06Z_MSC_RDPS_RelativeHumidity_IsbL-0100_RLatLon0.09_PT032H.grib2 2026-04-26 08:49 374K
20260426T06Z_MSC_RDPS_RelativeHumidity_IsbL-0150_RLatLon0.09_PT032H.grib2 2026-04-26 08:49 395K
20260426T06Z_MSC_RDPS_RelativeHumidity_IsbL-0175_RLatLon0.09_PT032H.grib2 2026-04-26 08:49 466K
20260426T06Z_MSC_RDPS_RelativeHumidity_IsbL-0200_RLatLon0.09_PT032H.grib2 2026-04-26 08:49 542K
20260426T06Z_MSC_RDPS_RelativeHumidity_IsbL-0225_RLatLon0.09_PT032H.grib2 2026-04-26 08:49 608K
20260426T06Z_MSC_RDPS_RelativeHumidity_IsbL-0250_RLatLon0.09_PT032H.grib2 2026-04-26 08:49 676K
20260426T06Z_MSC_RDPS_RelativeHumidity_IsbL-0275_RLatLon0.09_PT032H.grib2 2026-04-26 08:49 704K
20260426T06Z_MSC_RDPS_RelativeHumidity_IsbL-0300_RLatLon0.09_PT032H.grib2 2026-04-26 08:49 746K
20260426T06Z_MSC_RDPS_RelativeHumidity_IsbL-0350_RLatLon0.09_PT032H.grib2 2026-04-26 08:49 766K
20260426T06Z_MSC_RDPS_RelativeHumidity_IsbL-0400_RLatLon0.09_PT032H.grib2 2026-04-26 08:49 785K
20260426T06Z_MSC_RDPS_RelativeHumidity_IsbL-0450_RLatLon0.09_PT032H.grib2 2026-04-26 08:49 805K
20260426T06Z_MSC_RDPS_RelativeHumidity_IsbL-0500_RLatLon0.09_PT032H.grib2 2026-04-26 08:49 812K
20260426T06Z_MSC_RDPS_RelativeHumidity_IsbL-0550_RLatLon0.09_PT032H.grib2 2026-04-26 08:49 828K
20260426T06Z_MSC_RDPS_RelativeHumidity_IsbL-0600_RLatLon0.09_PT032H.grib2 2026-04-26 08:49 844K
20260426T06Z_MSC_RDPS_RelativeHumidity_IsbL-0650_RLatLon0.09_PT032H.grib2 2026-04-26 08:49 859K
20260426T06Z_MSC_RDPS_RelativeHumidity_IsbL-0700_RLatLon0.09_PT032H.grib2 2026-04-26 08:49 895K
20260426T06Z_MSC_RDPS_RelativeHumidity_IsbL-0750_RLatLon0.09_PT032H.grib2 2026-04-26 08:49 945K
20260426T06Z_MSC_RDPS_RelativeHumidity_IsbL-0800_RLatLon0.09_PT032H.grib2 2026-04-26 08:49 1.0M
20260426T06Z_MSC_RDPS_RelativeHumidity_IsbL-0850_RLatLon0.09_PT032H.grib2 2026-04-26 08:49 1.1M
20260426T06Z_MSC_RDPS_RelativeHumidity_IsbL-0875_RLatLon0.09_PT032H.grib2 2026-04-26 08:49 1.1M
20260426T06Z_MSC_RDPS_RelativeHumidity_IsbL-0900_RLatLon0.09_PT032H.grib2 2026-04-26 08:49 1.1M
20260426T06Z_MSC_RDPS_RelativeHumidity_IsbL-0925_RLatLon0.09_PT032H.grib2 2026-04-26 08:49 1.1M
20260426T06Z_MSC_RDPS_RelativeHumidity_IsbL-0950_RLatLon0.09_PT032H.grib2 2026-04-26 08:49 1.1M
20260426T06Z_MSC_RDPS_RelativeHumidity_IsbL-0970_RLatLon0.09_PT032H.grib2 2026-04-26 08:49 1.1M
20260426T06Z_MSC_RDPS_RelativeHumidity_IsbL-0985_RLatLon0.09_PT032H.grib2 2026-04-26 08:49 1.1M
20260426T06Z_MSC_RDPS_RelativeHumidity_IsbL-1000_RLatLon0.09_PT032H.grib2 2026-04-26 08:49 1.0M
20260426T06Z_MSC_RDPS_RelativeHumidity_IsbL-1015_RLatLon0.09_PT032H.grib2 2026-04-26 08:49 1.0M
20260426T06Z_MSC_RDPS_Runoff-Accum_Sfc_RLatLon0.09_PT032H.grib2 2026-04-26 08:49 51K
20260426T06Z_MSC_RDPS_SWEATIndex_Sfc_RLatLon0.09_PT032H.grib2 2026-04-26 08:49 2.4M
20260426T06Z_MSC_RDPS_SeeingIndex_EAtm_RLatLon0.09_PT032H.grib2 2026-04-26 08:49 1.0M
20260426T06Z_MSC_RDPS_SensibleHeatNetFlux_Sfc_RLatLon0.09_PT032H.grib2 2026-04-26 08:49 343K
20260426T06Z_MSC_RDPS_ShowalterIndex_IsbL-0500_RLatLon0.09_PT032H.grib2 2026-04-26 08:49 2.6M
20260426T06Z_MSC_RDPS_SkyTransparencyIndex_EAtm_RLatLon0.09_PT032H.grib2 2026-04-26 08:49 740K
20260426T06Z_MSC_RDPS_Snow-Accum1h_Sfc_RLatLon0.09_PT032H.grib2 2026-04-26 08:49 404K
20260426T06Z_MSC_RDPS_Snow-Accum_Sfc_RLatLon0.09_PT032H.grib2 2026-04-26 08:49 822K
20260426T06Z_MSC_RDPS_SnowDensity_Sfc_RLatLon0.09_PT032H.grib2 2026-04-26 08:49 184K
20260426T06Z_MSC_RDPS_SnowDepth_Sfc_RLatLon0.09_PT032H.grib2 2026-04-26 08:49 731K
20260426T06Z_MSC_RDPS_SoilTemp_DBS-0to10cm_RLatLon0.09_PT032H.grib2 2026-04-26 08:49 224K
20260426T06Z_MSC_RDPS_SoilTemp_Sfc_RLatLon0.09_PT032H.grib2 2026-04-26 08:49 280K
20260426T06Z_MSC_RDPS_SoilVolumetricIceContent_Sfc_RLatLon0.09_PT032H.grib2 2026-04-26 08:49 169K
20260426T06Z_MSC_RDPS_SoilVolumetricWaterContent_DBS-0to10cm_RLatLon0.09_PT032H.grib2 2026-04-26 08:49 259K
20260426T06Z_MSC_RDPS_SoilVolumetricWaterContent_DBS-0to1cm_RLatLon0.09_PT032H.grib2 2026-04-26 08:49 339K
20260426T06Z_MSC_RDPS_SpecificHumidity_AGL-120m_RLatLon0.09_PT032H.grib2 2026-04-26 08:49 496K
20260426T06Z_MSC_RDPS_SpecificHumidity_AGL-2m_RLatLon0.09_PT032H.grib2 2026-04-26 08:49 666K
20260426T06Z_MSC_RDPS_SpecificHumidity_AGL-40m_RLatLon0.09_PT032H.grib2 2026-04-26 08:49 502K
20260426T06Z_MSC_RDPS_SpecificHumidity_AGL-80m_RLatLon0.09_PT032H.grib2 2026-04-26 08:49 498K
20260426T06Z_MSC_RDPS_SpecificHumidity_IsbL-0001_RLatLon0.09_PT032H.grib2 2026-04-26 08:49 344K
20260426T06Z_MSC_RDPS_SpecificHumidity_IsbL-0005_RLatLon0.09_PT032H.grib2 2026-04-26 08:49 359K
20260426T06Z_MSC_RDPS_SpecificHumidity_IsbL-0010_RLatLon0.09_PT032H.grib2 2026-04-26 08:49 399K
20260426T06Z_MSC_RDPS_SpecificHumidity_IsbL-0020_RLatLon0.09_PT032H.grib2 2026-04-26 08:49 390K
20260426T06Z_MSC_RDPS_SpecificHumidity_IsbL-0030_RLatLon0.09_PT032H.grib2 2026-04-26 08:49 478K
20260426T06Z_MSC_RDPS_SpecificHumidity_IsbL-0050_RLatLon0.09_PT032H.grib2 2026-04-26 08:49 472K
20260426T06Z_MSC_RDPS_SpecificHumidity_IsbL-0100_RLatLon0.09_PT032H.grib2 2026-04-26 08:49 418K
20260426T06Z_MSC_RDPS_SpecificHumidity_IsbL-0150_RLatLon0.09_PT032H.grib2 2026-04-26 08:49 367K
20260426T06Z_MSC_RDPS_SpecificHumidity_IsbL-0175_RLatLon0.09_PT032H.grib2 2026-04-26 08:49 452K
20260426T06Z_MSC_RDPS_SpecificHumidity_IsbL-0200_RLatLon0.09_PT032H.grib2 2026-04-26 08:49 446K
20260426T06Z_MSC_RDPS_SpecificHumidity_IsbL-0225_RLatLon0.09_PT032H.grib2 2026-04-26 08:49 549K
20260426T06Z_MSC_RDPS_SpecificHumidity_IsbL-0250_RLatLon0.09_PT032H.grib2 2026-04-26 08:49 545K
20260426T06Z_MSC_RDPS_SpecificHumidity_IsbL-0275_RLatLon0.09_PT032H.grib2 2026-04-26 08:49 460K
20260426T06Z_MSC_RDPS_SpecificHumidity_IsbL-0300_RLatLon0.09_PT032H.grib2 2026-04-26 08:49 526K
20260426T06Z_MSC_RDPS_SpecificHumidity_IsbL-0350_RLatLon0.09_PT032H.grib2 2026-04-26 08:49 517K
20260426T06Z_MSC_RDPS_SpecificHumidity_IsbL-0400_RLatLon0.09_PT032H.grib2 2026-04-26 08:49 503K
20260426T06Z_MSC_RDPS_SpecificHumidity_IsbL-0450_RLatLon0.09_PT032H.grib2 2026-04-26 08:49 567K
20260426T06Z_MSC_RDPS_SpecificHumidity_IsbL-0500_RLatLon0.09_PT032H.grib2 2026-04-26 08:49 504K
20260426T06Z_MSC_RDPS_SpecificHumidity_IsbL-0550_RLatLon0.09_PT032H.grib2 2026-04-26 08:49 558K
20260426T06Z_MSC_RDPS_SpecificHumidity_IsbL-0600_RLatLon0.09_PT032H.grib2 2026-04-26 08:49 623K
20260426T06Z_MSC_RDPS_SpecificHumidity_IsbL-0650_RLatLon0.09_PT032H.grib2 2026-04-26 08:49 540K
20260426T06Z_MSC_RDPS_SpecificHumidity_IsbL-0700_RLatLon0.09_PT032H.grib2 2026-04-26 08:49 588K
20260426T06Z_MSC_RDPS_SpecificHumidity_IsbL-0750_RLatLon0.09_PT032H.grib2 2026-04-26 08:49 649K
20260426T06Z_MSC_RDPS_SpecificHumidity_IsbL-0800_RLatLon0.09_PT032H.grib2 2026-04-26 08:49 727K
20260426T06Z_MSC_RDPS_SpecificHumidity_IsbL-0850_RLatLon0.09_PT032H.grib2 2026-04-26 08:49 806K
20260426T06Z_MSC_RDPS_SpecificHumidity_IsbL-0875_RLatLon0.09_PT032H.grib2 2026-04-26 08:49 826K
20260426T06Z_MSC_RDPS_SpecificHumidity_IsbL-0900_RLatLon0.09_PT032H.grib2 2026-04-26 08:49 835K
20260426T06Z_MSC_RDPS_SpecificHumidity_IsbL-0925_RLatLon0.09_PT032H.grib2 2026-04-26 08:49 839K
20260426T06Z_MSC_RDPS_SpecificHumidity_IsbL-0950_RLatLon0.09_PT032H.grib2 2026-04-26 08:49 839K
20260426T06Z_MSC_RDPS_SpecificHumidity_IsbL-0970_RLatLon0.09_PT032H.grib2 2026-04-26 08:49 834K
20260426T06Z_MSC_RDPS_SpecificHumidity_IsbL-0985_RLatLon0.09_PT032H.grib2 2026-04-26 08:49 689K
20260426T06Z_MSC_RDPS_SpecificHumidity_IsbL-1000_RLatLon0.09_PT032H.grib2 2026-04-26 08:49 685K
20260426T06Z_MSC_RDPS_SpecificHumidity_IsbL-1015_RLatLon0.09_PT032H.grib2 2026-04-26 08:49 677K
20260426T06Z_MSC_RDPS_SpecificHumidity_Sfc_RLatLon0.09_PT032H.grib2 2026-04-26 08:49 307K
20260426T06Z_MSC_RDPS_StormRelativeHelicity_EtaL-10000_RLatLon0.09_PT032H.grib2 2026-04-26 08:49 1.1M
20260426T06Z_MSC_RDPS_StormSeverityIndex_EtaL-10000_RLatLon0.09_PT032H.grib2 2026-04-26 08:49 1.2M
20260426T06Z_MSC_RDPS_Thickness_IsbL-0850to0700_RLatLon0.09_PT032H.grib2 2026-04-26 08:49 174K
20260426T06Z_MSC_RDPS_Thickness_IsbL-1000to0500_RLatLon0.09_PT032H.grib2 2026-04-26 08:49 199K
20260426T06Z_MSC_RDPS_Thickness_IsbL-1000to0850_RLatLon0.09_PT032H.grib2 2026-04-26 08:49 186K
20260426T06Z_MSC_RDPS_TotalCloudCover_Sfc_RLatLon0.09_PT032H.grib2 2026-04-26 08:49 676K
20260426T06Z_MSC_RDPS_TotalTotalsIndex_Sfc_RLatLon0.09_PT032H.grib2 2026-04-26 08:49 2.4M
20260426T06Z_MSC_RDPS_UVIndex-ClearSky_Sfc_RLatLon0.09_PT032H.grib2 2026-04-26 08:49 206K
20260426T06Z_MSC_RDPS_UVIndex_Sfc_RLatLon0.09_PT032H.grib2 2026-04-26 08:49 446K
20260426T06Z_MSC_RDPS_UpwardLongwaveRadiationFlux_NTAtm_RLatLon0.09_PT032H.grib2 2026-04-26 08:49 482K
20260426T06Z_MSC_RDPS_UpwardShortwaveRadiationFlux_NTAtm_RLatLon0.09_PT032H.grib2 2026-04-26 08:49 406K
20260426T06Z_MSC_RDPS_VerticalVelocity_IsbL-0250_RLatLon0.09_PT032H.grib2 2026-04-26 08:49 539K
20260426T06Z_MSC_RDPS_VerticalVelocity_IsbL-0500_RLatLon0.09_PT032H.grib2 2026-04-26 08:49 536K
20260426T06Z_MSC_RDPS_VerticalVelocity_IsbL-0700_RLatLon0.09_PT032H.grib2 2026-04-26 08:49 585K
20260426T06Z_MSC_RDPS_VerticalVelocity_IsbL-0850_RLatLon0.09_PT032H.grib2 2026-04-26 08:49 695K
20260426T06Z_MSC_RDPS_VerticalWindShear_EtaL-6500_RLatLon0.09_PT032H.grib2 2026-04-26 08:49 1.2M
20260426T06Z_MSC_RDPS_WindChill_Sfc_RLatLon0.09_PT032H.grib2 2026-04-26 08:49 1.3M
20260426T06Z_MSC_RDPS_WindDir_AGL-10m_RLatLon0.09_PT032H.grib2 2026-04-26 08:49 1.0M
20260426T06Z_MSC_RDPS_WindDir_AGL-120m_RLatLon0.09_PT032H.grib2 2026-04-26 08:49 626K
20260426T06Z_MSC_RDPS_WindDir_AGL-40m_RLatLon0.09_PT032H.grib2 2026-04-26 08:49 655K
20260426T06Z_MSC_RDPS_WindDir_AGL-80m_RLatLon0.09_PT032H.grib2 2026-04-26 08:49 637K
20260426T06Z_MSC_RDPS_WindDir_IsbL-0001_RLatLon0.09_PT032H.grib2 2026-04-26 08:49 294K
20260426T06Z_MSC_RDPS_WindDir_IsbL-0005_RLatLon0.09_PT032H.grib2 2026-04-26 08:49 347K
20260426T06Z_MSC_RDPS_WindDir_IsbL-0010_RLatLon0.09_PT032H.grib2 2026-04-26 08:49 383K
20260426T06Z_MSC_RDPS_WindDir_IsbL-0020_RLatLon0.09_PT032H.grib2 2026-04-26 08:49 403K
20260426T06Z_MSC_RDPS_WindDir_IsbL-0030_RLatLon0.09_PT032H.grib2 2026-04-26 08:49 411K
20260426T06Z_MSC_RDPS_WindDir_IsbL-0050_RLatLon0.09_PT032H.grib2 2026-04-26 08:49 427K
20260426T06Z_MSC_RDPS_WindDir_IsbL-0100_RLatLon0.09_PT032H.grib2 2026-04-26 08:49 402K
20260426T06Z_MSC_RDPS_WindDir_IsbL-0150_RLatLon0.09_PT032H.grib2 2026-04-26 08:49 398K
20260426T06Z_MSC_RDPS_WindDir_IsbL-0175_RLatLon0.09_PT032H.grib2 2026-04-26 08:49 421K
20260426T06Z_MSC_RDPS_WindDir_IsbL-0200_RLatLon0.09_PT032H.grib2 2026-04-26 08:49 438K
20260426T06Z_MSC_RDPS_WindDir_IsbL-0225_RLatLon0.09_PT032H.grib2 2026-04-26 08:49 446K
20260426T06Z_MSC_RDPS_WindDir_IsbL-0250_RLatLon0.09_PT032H.grib2 2026-04-26 08:49 446K
20260426T06Z_MSC_RDPS_WindDir_IsbL-0275_RLatLon0.09_PT032H.grib2 2026-04-26 08:49 469K
20260426T06Z_MSC_RDPS_WindDir_IsbL-0300_RLatLon0.09_PT032H.grib2 2026-04-26 08:49 467K
20260426T06Z_MSC_RDPS_WindDir_IsbL-0350_RLatLon0.09_PT032H.grib2 2026-04-26 08:49 489K
20260426T06Z_MSC_RDPS_WindDir_IsbL-0400_RLatLon0.09_PT032H.grib2 2026-04-26 08:49 504K
20260426T06Z_MSC_RDPS_WindDir_IsbL-0450_RLatLon0.09_PT032H.grib2 2026-04-26 08:49 519K
20260426T06Z_MSC_RDPS_WindDir_IsbL-0500_RLatLon0.09_PT032H.grib2 2026-04-26 08:49 535K
20260426T06Z_MSC_RDPS_WindDir_IsbL-0550_RLatLon0.09_PT032H.grib2 2026-04-26 08:49 544K
20260426T06Z_MSC_RDPS_WindDir_IsbL-0600_RLatLon0.09_PT032H.grib2 2026-04-26 08:49 572K
20260426T06Z_MSC_RDPS_WindDir_IsbL-0650_RLatLon0.09_PT032H.grib2 2026-04-26 08:49 621K
20260426T06Z_MSC_RDPS_WindDir_IsbL-0700_RLatLon0.09_PT032H.grib2 2026-04-26 08:49 666K
20260426T06Z_MSC_RDPS_WindDir_IsbL-0750_RLatLon0.09_PT032H.grib2 2026-04-26 08:49 718K
20260426T06Z_MSC_RDPS_WindDir_IsbL-0800_RLatLon0.09_PT032H.grib2 2026-04-26 08:49 796K
20260426T06Z_MSC_RDPS_WindDir_IsbL-0850_RLatLon0.09_PT032H.grib2 2026-04-26 08:49 866K
20260426T06Z_MSC_RDPS_WindDir_IsbL-0875_RLatLon0.09_PT032H.grib2 2026-04-26 08:49 889K
20260426T06Z_MSC_RDPS_WindDir_IsbL-0900_RLatLon0.09_PT032H.grib2 2026-04-26 08:49 907K
20260426T06Z_MSC_RDPS_WindDir_IsbL-0925_RLatLon0.09_PT032H.grib2 2026-04-26 08:49 922K
20260426T06Z_MSC_RDPS_WindDir_IsbL-0950_RLatLon0.09_PT032H.grib2 2026-04-26 08:49 926K
20260426T06Z_MSC_RDPS_WindDir_IsbL-0970_RLatLon0.09_PT032H.grib2 2026-04-26 08:49 933K
20260426T06Z_MSC_RDPS_WindDir_IsbL-0985_RLatLon0.09_PT032H.grib2 2026-04-26 08:49 946K
20260426T06Z_MSC_RDPS_WindDir_IsbL-1000_RLatLon0.09_PT032H.grib2 2026-04-26 08:49 963K
20260426T06Z_MSC_RDPS_WindDir_IsbL-1015_RLatLon0.09_PT032H.grib2 2026-04-26 08:49 1.0M
20260426T06Z_MSC_RDPS_WindGust-Max_AGL-10m_RLatLon0.09_PT032H.grib2 2026-04-26 08:49 961K
20260426T06Z_MSC_RDPS_WindGust-Min_AGL-10m_RLatLon0.09_PT032H.grib2 2026-04-26 08:49 1.0M
20260426T06Z_MSC_RDPS_WindGust_AGL-10m_RLatLon0.09_PT032H.grib2 2026-04-26 08:49 952K
20260426T06Z_MSC_RDPS_WindSpeed_AGL-10m_RLatLon0.09_PT032H.grib2 2026-04-26 08:49 858K
20260426T06Z_MSC_RDPS_WindSpeed_AGL-120m_RLatLon0.09_PT032H.grib2 2026-04-26 08:49 560K
20260426T06Z_MSC_RDPS_WindSpeed_AGL-40m_RLatLon0.09_PT032H.grib2 2026-04-26 08:49 563K
20260426T06Z_MSC_RDPS_WindSpeed_AGL-80m_RLatLon0.09_PT032H.grib2 2026-04-26 08:49 561K
20260426T06Z_MSC_RDPS_WindSpeed_IsbL-0001_RLatLon0.09_PT032H.grib2 2026-04-26 08:49 254K
20260426T06Z_MSC_RDPS_WindSpeed_IsbL-0005_RLatLon0.09_PT032H.grib2 2026-04-26 08:49 300K
20260426T06Z_MSC_RDPS_WindSpeed_IsbL-0010_RLatLon0.09_PT032H.grib2 2026-04-26 08:49 403K
20260426T06Z_MSC_RDPS_WindSpeed_IsbL-0020_RLatLon0.09_PT032H.grib2 2026-04-26 08:49 325K
20260426T06Z_MSC_RDPS_WindSpeed_IsbL-0030_RLatLon0.09_PT032H.grib2 2026-04-26 08:49 323K
20260426T06Z_MSC_RDPS_WindSpeed_IsbL-0050_RLatLon0.09_PT032H.grib2 2026-04-26 08:49 356K
20260426T06Z_MSC_RDPS_WindSpeed_IsbL-0100_RLatLon0.09_PT032H.grib2 2026-04-26 08:49 469K
20260426T06Z_MSC_RDPS_WindSpeed_IsbL-0150_RLatLon0.09_PT032H.grib2 2026-04-26 08:49 367K
20260426T06Z_MSC_RDPS_WindSpeed_IsbL-0175_RLatLon0.09_PT032H.grib2 2026-04-26 08:49 395K
20260426T06Z_MSC_RDPS_WindSpeed_IsbL-0200_RLatLon0.09_PT032H.grib2 2026-04-26 08:49 432K
20260426T06Z_MSC_RDPS_WindSpeed_IsbL-0225_RLatLon0.09_PT032H.grib2 2026-04-26 08:49 441K
20260426T06Z_MSC_RDPS_WindSpeed_IsbL-0250_RLatLon0.09_PT032H.grib2 2026-04-26 08:49 443K
20260426T06Z_MSC_RDPS_WindSpeed_IsbL-0275_RLatLon0.09_PT032H.grib2 2026-04-26 08:49 461K
20260426T06Z_MSC_RDPS_WindSpeed_IsbL-0300_RLatLon0.09_PT032H.grib2 2026-04-26 08:49 458K
20260426T06Z_MSC_RDPS_WindSpeed_IsbL-0350_RLatLon0.09_PT032H.grib2 2026-04-26 08:49 451K
20260426T06Z_MSC_RDPS_WindSpeed_IsbL-0400_RLatLon0.09_PT032H.grib2 2026-04-26 08:49 455K
20260426T06Z_MSC_RDPS_WindSpeed_IsbL-0450_RLatLon0.09_PT032H.grib2 2026-04-26 08:49 455K
20260426T06Z_MSC_RDPS_WindSpeed_IsbL-0500_RLatLon0.09_PT032H.grib2 2026-04-26 08:49 571K
20260426T06Z_MSC_RDPS_WindSpeed_IsbL-0550_RLatLon0.09_PT032H.grib2 2026-04-26 08:49 571K
20260426T06Z_MSC_RDPS_WindSpeed_IsbL-0600_RLatLon0.09_PT032H.grib2 2026-04-26 08:49 582K
20260426T06Z_MSC_RDPS_WindSpeed_IsbL-0650_RLatLon0.09_PT032H.grib2 2026-04-26 08:49 605K
20260426T06Z_MSC_RDPS_WindSpeed_IsbL-0700_RLatLon0.09_PT032H.grib2 2026-04-26 08:49 673K
20260426T06Z_MSC_RDPS_WindSpeed_IsbL-0750_RLatLon0.09_PT032H.grib2 2026-04-26 08:49 705K
20260426T06Z_MSC_RDPS_WindSpeed_IsbL-0800_RLatLon0.09_PT032H.grib2 2026-04-26 08:49 758K
20260426T06Z_MSC_RDPS_WindSpeed_IsbL-0850_RLatLon0.09_PT032H.grib2 2026-04-26 08:49 771K
20260426T06Z_MSC_RDPS_WindSpeed_IsbL-0875_RLatLon0.09_PT032H.grib2 2026-04-26 08:49 791K
20260426T06Z_MSC_RDPS_WindSpeed_IsbL-0900_RLatLon0.09_PT032H.grib2 2026-04-26 08:49 853K
20260426T06Z_MSC_RDPS_WindSpeed_IsbL-0925_RLatLon0.09_PT032H.grib2 2026-04-26 08:49 867K
20260426T06Z_MSC_RDPS_WindSpeed_IsbL-0950_RLatLon0.09_PT032H.grib2 2026-04-26 08:49 867K
20260426T06Z_MSC_RDPS_WindSpeed_IsbL-0970_RLatLon0.09_PT032H.grib2 2026-04-26 08:49 866K
20260426T06Z_MSC_RDPS_WindSpeed_IsbL-0985_RLatLon0.09_PT032H.grib2 2026-04-26 08:49 865K
20260426T06Z_MSC_RDPS_WindSpeed_IsbL-1000_RLatLon0.09_PT032H.grib2 2026-04-26 08:49 862K
20260426T06Z_MSC_RDPS_WindSpeed_IsbL-1015_RLatLon0.09_PT032H.grib2 2026-04-26 08:49 855K
20260426T06Z_MSC_RDPS_WindU_AGL-10m_RLatLon0.09_PT032H.grib2 2026-04-26 08:49 391K
20260426T06Z_MSC_RDPS_WindU_AGL-120m_RLatLon0.09_PT032H.grib2 2026-04-26 08:49 426K
20260426T06Z_MSC_RDPS_WindU_AGL-40m_RLatLon0.09_PT032H.grib2 2026-04-26 08:49 428K
20260426T06Z_MSC_RDPS_WindU_AGL-80m_RLatLon0.09_PT032H.grib2 2026-04-26 08:49 427K
20260426T06Z_MSC_RDPS_WindU_IsbL-0001_RLatLon0.09_PT032H.grib2 2026-04-26 08:49 293K
20260426T06Z_MSC_RDPS_WindU_IsbL-0005_RLatLon0.09_PT032H.grib2 2026-04-26 08:49 291K
20260426T06Z_MSC_RDPS_WindU_IsbL-0010_RLatLon0.09_PT032H.grib2 2026-04-26 08:49 301K
20260426T06Z_MSC_RDPS_WindU_IsbL-0020_RLatLon0.09_PT032H.grib2 2026-04-26 08:49 356K
20260426T06Z_MSC_RDPS_WindU_IsbL-0030_RLatLon0.09_PT032H.grib2 2026-04-26 08:49 354K
20260426T06Z_MSC_RDPS_WindU_IsbL-0050_RLatLon0.09_PT032H.grib2 2026-04-26 08:49 384K
20260426T06Z_MSC_RDPS_WindU_IsbL-0100_RLatLon0.09_PT032H.grib2 2026-04-26 08:49 427K
20260426T06Z_MSC_RDPS_WindU_IsbL-0150_RLatLon0.09_PT032H.grib2 2026-04-26 08:49 385K
20260426T06Z_MSC_RDPS_WindU_IsbL-0175_RLatLon0.09_PT032H.grib2 2026-04-26 08:49 410K
20260426T06Z_MSC_RDPS_WindU_IsbL-0200_RLatLon0.09_PT032H.grib2 2026-04-26 08:49 329K
20260426T06Z_MSC_RDPS_WindU_IsbL-0225_RLatLon0.09_PT032H.grib2 2026-04-26 08:49 335K
20260426T06Z_MSC_RDPS_WindU_IsbL-0250_RLatLon0.09_PT032H.grib2 2026-04-26 08:49 336K
20260426T06Z_MSC_RDPS_WindU_IsbL-0275_RLatLon0.09_PT032H.grib2 2026-04-26 08:49 349K
20260426T06Z_MSC_RDPS_WindU_IsbL-0300_RLatLon0.09_PT032H.grib2 2026-04-26 08:49 345K
20260426T06Z_MSC_RDPS_WindU_IsbL-0350_RLatLon0.09_PT032H.grib2 2026-04-26 08:49 354K
20260426T06Z_MSC_RDPS_WindU_IsbL-0400_RLatLon0.09_PT032H.grib2 2026-04-26 08:49 459K
20260426T06Z_MSC_RDPS_WindU_IsbL-0450_RLatLon0.09_PT032H.grib2 2026-04-26 08:49 461K
20260426T06Z_MSC_RDPS_WindU_IsbL-0500_RLatLon0.09_PT032H.grib2 2026-04-26 08:49 461K
20260426T06Z_MSC_RDPS_WindU_IsbL-0550_RLatLon0.09_PT032H.grib2 2026-04-26 08:49 462K
20260426T06Z_MSC_RDPS_WindU_IsbL-0600_RLatLon0.09_PT032H.grib2 2026-04-26 08:49 471K
20260426T06Z_MSC_RDPS_WindU_IsbL-0650_RLatLon0.09_PT032H.grib2 2026-04-26 08:49 490K
20260426T06Z_MSC_RDPS_WindU_IsbL-0700_RLatLon0.09_PT032H.grib2 2026-04-26 08:49 512K
20260426T06Z_MSC_RDPS_WindU_IsbL-0750_RLatLon0.09_PT032H.grib2 2026-04-26 08:49 539K
20260426T06Z_MSC_RDPS_WindU_IsbL-0800_RLatLon0.09_PT032H.grib2 2026-04-26 08:49 573K
20260426T06Z_MSC_RDPS_WindU_IsbL-0850_RLatLon0.09_PT032H.grib2 2026-04-26 08:49 634K
20260426T06Z_MSC_RDPS_WindU_IsbL-0875_RLatLon0.09_PT032H.grib2 2026-04-26 08:49 650K
20260426T06Z_MSC_RDPS_WindU_IsbL-0900_RLatLon0.09_PT032H.grib2 2026-04-26 08:49 660K
20260426T06Z_MSC_RDPS_WindU_IsbL-0925_RLatLon0.09_PT032H.grib2 2026-04-26 08:49 664K
20260426T06Z_MSC_RDPS_WindU_IsbL-0950_RLatLon0.09_PT032H.grib2 2026-04-26 08:49 661K
20260426T06Z_MSC_RDPS_WindU_IsbL-0970_RLatLon0.09_PT032H.grib2 2026-04-26 08:49 658K
20260426T06Z_MSC_RDPS_WindU_IsbL-0985_RLatLon0.09_PT032H.grib2 2026-04-26 08:49 658K
20260426T06Z_MSC_RDPS_WindU_IsbL-1000_RLatLon0.09_PT032H.grib2 2026-04-26 08:49 658K
20260426T06Z_MSC_RDPS_WindU_IsbL-1015_RLatLon0.09_PT032H.grib2 2026-04-26 08:49 654K
20260426T06Z_MSC_RDPS_WindV_AGL-10m_RLatLon0.09_PT032H.grib2 2026-04-26 08:49 440K
20260426T06Z_MSC_RDPS_WindV_AGL-120m_RLatLon0.09_PT032H.grib2 2026-04-26 08:49 425K
20260426T06Z_MSC_RDPS_WindV_AGL-40m_RLatLon0.09_PT032H.grib2 2026-04-26 08:49 546K
20260426T06Z_MSC_RDPS_WindV_AGL-80m_RLatLon0.09_PT032H.grib2 2026-04-26 08:49 426K
20260426T06Z_MSC_RDPS_WindV_IsbL-0001_RLatLon0.09_PT032H.grib2 2026-04-26 08:49 291K
20260426T06Z_MSC_RDPS_WindV_IsbL-0005_RLatLon0.09_PT032H.grib2 2026-04-26 08:49 332K
20260426T06Z_MSC_RDPS_WindV_IsbL-0010_RLatLon0.09_PT032H.grib2 2026-04-26 08:49 302K
20260426T06Z_MSC_RDPS_WindV_IsbL-0020_RLatLon0.09_PT032H.grib2 2026-04-26 08:49 319K
20260426T06Z_MSC_RDPS_WindV_IsbL-0030_RLatLon0.09_PT032H.grib2 2026-04-26 08:49 356K
20260426T06Z_MSC_RDPS_WindV_IsbL-0050_RLatLon0.09_PT032H.grib2 2026-04-26 08:49 349K
20260426T06Z_MSC_RDPS_WindV_IsbL-0100_RLatLon0.09_PT032H.grib2 2026-04-26 08:49 326K
20260426T06Z_MSC_RDPS_WindV_IsbL-0150_RLatLon0.09_PT032H.grib2 2026-04-26 08:49 383K
20260426T06Z_MSC_RDPS_WindV_IsbL-0175_RLatLon0.09_PT032H.grib2 2026-04-26 08:49 316K
20260426T06Z_MSC_RDPS_WindV_IsbL-0200_RLatLon0.09_PT032H.grib2 2026-04-26 08:49 328K
20260426T06Z_MSC_RDPS_WindV_IsbL-0225_RLatLon0.09_PT032H.grib2 2026-04-26 08:49 333K
20260426T06Z_MSC_RDPS_WindV_IsbL-0250_RLatLon0.09_PT032H.grib2 2026-04-26 08:49 360K
20260426T06Z_MSC_RDPS_WindV_IsbL-0275_RLatLon0.09_PT032H.grib2 2026-04-26 08:49 372K
20260426T06Z_MSC_RDPS_WindV_IsbL-0300_RLatLon0.09_PT032H.grib2 2026-04-26 08:49 368K
20260426T06Z_MSC_RDPS_WindV_IsbL-0350_RLatLon0.09_PT032H.grib2 2026-04-26 08:49 352K
20260426T06Z_MSC_RDPS_WindV_IsbL-0400_RLatLon0.09_PT032H.grib2 2026-04-26 08:49 354K
20260426T06Z_MSC_RDPS_WindV_IsbL-0450_RLatLon0.09_PT032H.grib2 2026-04-26 08:49 455K
20260426T06Z_MSC_RDPS_WindV_IsbL-0500_RLatLon0.09_PT032H.grib2 2026-04-26 08:49 455K
20260426T06Z_MSC_RDPS_WindV_IsbL-0550_RLatLon0.09_PT032H.grib2 2026-04-26 08:49 456K
20260426T06Z_MSC_RDPS_WindV_IsbL-0600_RLatLon0.09_PT032H.grib2 2026-04-26 08:49 465K
20260426T06Z_MSC_RDPS_WindV_IsbL-0650_RLatLon0.09_PT032H.grib2 2026-04-26 08:49 485K
20260426T06Z_MSC_RDPS_WindV_IsbL-0700_RLatLon0.09_PT032H.grib2 2026-04-26 08:49 506K
20260426T06Z_MSC_RDPS_WindV_IsbL-0750_RLatLon0.09_PT032H.grib2 2026-04-26 08:49 519K
20260426T06Z_MSC_RDPS_WindV_IsbL-0800_RLatLon0.09_PT032H.grib2 2026-04-26 08:49 567K
20260426T06Z_MSC_RDPS_WindV_IsbL-0850_RLatLon0.09_PT032H.grib2 2026-04-26 08:49 619K
20260426T06Z_MSC_RDPS_WindV_IsbL-0875_RLatLon0.09_PT032H.grib2 2026-04-26 08:49 637K
20260426T06Z_MSC_RDPS_WindV_IsbL-0900_RLatLon0.09_PT032H.grib2 2026-04-26 08:49 650K
20260426T06Z_MSC_RDPS_WindV_IsbL-0925_RLatLon0.09_PT032H.grib2 2026-04-26 08:49 661K
20260426T06Z_MSC_RDPS_WindV_IsbL-0950_RLatLon0.09_PT032H.grib2 2026-04-26 08:49 659K
20260426T06Z_MSC_RDPS_WindV_IsbL-0970_RLatLon0.09_PT032H.grib2 2026-04-26 08:49 657K
20260426T06Z_MSC_RDPS_WindV_IsbL-0985_RLatLon0.09_PT032H.grib2 2026-04-26 08:49 797K
20260426T06Z_MSC_RDPS_WindV_IsbL-1000_RLatLon0.09_PT032H.grib2 2026-04-26 08:49 797K
20260426T06Z_MSC_RDPS_WindV_IsbL-1015_RLatLon0.09_PT032H.grib2 2026-04-26 08:49 792K